Terminal Aerodrome Forecast
Issued by NWS Sioux Falls, SD

Home | Current Version | Previous Version | Graphics & Text | Print | Product List | Glossary On
Versions: 1 2 3 4 5 6 7 8 9 10 11 12 13 14 15 16 17 18 19 20 21 22 23 24 25 26 27 28 29 30 31 32 33 34 35 36 37 38 39 40 41 42 43 44 45 46 47 48 49 50
000
FTUS43 KFSD 232320
TAFSUX
TAF
KSUX 232320Z 2400/2424 15013KT P6SM SCT020 OVC035
     FM240100 12009KT P6SM OVC025
     FM240500 11008KT 5SM -SHRA OVC018
     FM240900 09009KT 4SM SHRA BR OVC007
     FM241400 10010KT P6SM OVC015
     FM242000 10006KT P6SM OVC035=

USA.gov is the U.S. government's official web portal to all federal, state and local government web resources and services.